WD8LSN Weather Reports


Display with metric or nautical units.
time (UTC)temp
F
wind
direction
speed
MPH
gust
MPH
rain 1hr
in
rain 24hr
in
rain mn
in
humidity
%
barometer
mb
20260508170051 67 216 6.0 10.0 0.00 0.00 0.00 45 1015.0
20260508164548 67 239 3.0 16.0 0.00 0.00 0.00 47 1015.3
20260508163056 67 131 2.0 11.0 0.00 0.00 0.00 48 1015.4
20260508161600 65 231 4.0 9.0 0.00 0.00 0.00 50 1015.7
20260508160056 64 243 7.0 12.0 0.00 0.00 0.00 49 1015.8
20260508154553 64 248 2.0 12.0 0.00 0.00 0.00 49 1016.2
20260508153055 63 240 2.0 14.0 0.00 0.00 0.00 53 1016.4
20260508151554 62 229 3.0 7.0 0.00 0.00 0.00 51 1016.6
20260508150052 62 240 2.0 8.0 0.00 0.00 0.00 52 1016.7
20260508144549 61 277 3.0 9.0 0.00 0.00 0.00 53 1016.8
20260508143051 61 235 2.0 6.0 0.00 0.00 0.00 52 1017.0
20260508141552 60 252 1.0 8.0 0.00 0.00 0.00 57 1017.0
20260508140051 59 254 2.0 5.0 0.00 0.00 0.00 56 1017.0
20260508134606 57 247 1.0 4.0 0.00 0.00 0.00 63 1017.0
20260508133109 55 235 1.0 6.0 0.00 0.00 0.00 65 1017.0
20260508131554 53 172 0.0 6.0 0.00 0.00 0.00 68 1017.0
20260508130050 51 169 3.0 7.0 0.00 0.00 0.00 70 1016.7
20260508124547 49 175 2.0 8.0 0.00 0.00 0.00 73 1016.9
20260508123047 47 167 3.0 6.0 0.00 0.00 0.00 76 1016.8
20260508121552 48 162 1.0 3.0 0.00 0.00 0.00 77 1017.0
20260508120055 46 0 1.0 4.0 0.00 0.00 0.00 81 1016.9
20260508114550 43 152 1.0 4.0 0.00 0.00 0.00 83 1016.6
20260508113056 42 214 1.0 4.0 0.00 0.00 0.00 84 1016.5
20260508111554 40 172 0.0 3.0 0.00 0.00 0.00 87 1016.4
20260508110047 40 155 1.0 2.0 0.00 0.00 0.00 87 1016.3
20260508104553 39 0 0.0 1.0 0.00 0.00 0.00 87 1016.4
20260508103049 39 161 0.0 1.0 0.00 0.00 0.00 88 1016.1
20260508101556 39 142 1.0 2.0 0.00 0.00 0.00 88 1016.1
20260508100050 38 0 0.0 1.0 0.00 0.00 0.00 88 1016.0
20260508094559 38 157 0.0 2.0 0.00 0.00 0.00 88 1016.1
20260508093047 38 0 0.0 1.0 0.00 0.00 0.00 88 1016.1
20260508091622 39 158 0.0 2.0 0.00 0.00 0.00 88 1016.1
20260508090058 39 158 0.0 0.0 0.00 0.00 0.00 88 1016.1
20260508084547 39 0 0.0 2.0 0.00 0.00 0.00 88 1015.8
20260508083053 39 159 0.0 1.0 0.00 0.00 0.00 88 1015.9
20260508081548 39 0 0.0 1.0 0.00 0.00 0.00 87 1015.8
20260508080050 40 143 0.0 1.0 0.00 0.00 0.00 87 1015.7
20260508074548 40 157 0.0 1.0 0.00 0.00 0.00 87 1015.8
20260508073051 40 0 0.0 2.0 0.00 0.00 0.00 87 1015.9
20260508071554 40 157 1.0 2.0 0.00 0.00 0.00 87 1015.9
20260508070049 40 0 0.0 2.0 0.00 0.00 0.00 87 1016.0
20260508064552 40 158 0.0 2.0 0.00 0.00 0.00 87 1016.1
20260508063117 40 0 0.0 3.0 0.00 0.00 0.00 86 1016.1
20260508061552 40 152 0.0 0.0 0.00 0.00 0.00 86 1016.2
20260508060047 41 0 0.0 2.0 0.00 0.00 0.00 85 1016.3
20260508054550 41 0 0.0 1.0 0.00 0.00 0.00 84 1016.3
20260508053102 42 0 0.0 2.0 0.00 0.00 0.00 83 1016.3
20260508051616 42 146 1.0 2.0 0.00 0.00 0.00 83 1016.1
20260508050057 43 0 0.0 2.0 0.00 0.00 0.00 81 1016.3
20260508044553 43 145 0.0 1.0 0.00 0.00 0.00 80 1016.3
20260508043051 43 0 0.0 1.0 0.00 0.00 0.00 79 1016.3
20260508041554 44 148 1.0 2.0 0.00 0.00 0.00 78 1016.3
20260508040054 44 0 0.0 1.0 0.00 0.00 0.00 77 1016.3
20260508034547 45 0 0.0 1.0 0.00 0.00 0.00 75 1016.2
20260508033050 46 162 1.0 2.0 0.00 0.00 0.00 74 1016.3
20260508031551 46 148 1.0 3.0 0.00 0.00 0.00 72 1016.2
20260508030051 47 155 1.0 3.0 0.00 0.00 0.00 69 1016.4
20260508024550 48 0 0.0 0.0 0.00 0.00 0.00 67 1016.4
20260508023054 49 0 0.0 0.0 0.00 0.00 0.00 62 1016.4
20260508021554 51 0 0.0 0.0 0.00 0.00 0.00 54 1016.2
20260508020104 50 0 0.0 0.0 0.00 0.00 0.00 55 1016.2
20260508014550 50 0 0.0 0.0 0.00 0.00 0.00 56 1016.0
20260508013050 51 0 0.0 0.0 0.00 0.00 0.00 53 1016.0
20260508011550 52 0 0.0 0.0 0.00 0.00 0.00 51 1015.8
20260508010059 53 0 0.0 0.0 0.00 0.00 0.00 50 1015.6
20260508004545 53 0 0.0 0.0 0.00 0.00 0.00 50 1015.5
20260508003100 55 0 0.0 0.0 0.00 0.00 0.00 48 1015.3
20260508001553 57 0 0.0 3.0 0.00 0.00 0.00 45 1015.3
20260508000048 58 0 0.0 2.0 0.00 0.00 0.00 44 1015.1
20260507234547 59 302 0.0 5.0 0.00 0.00 0.00 43 1015.0
20260507233052 58 319 2.0 6.0 0.00 0.00 0.00 44 1015.0
20260507231552 59 319 3.0 9.0 0.00 0.00 0.00 42 1015.0
20260507230105 59 317 2.0 7.0 0.00 0.00 0.00 43 1014.9
20260507224549 59 311 5.0 14.0 0.00 0.00 0.00 43 1014.9
20260507223133 59 37 6.0 13.0 0.00 0.00 0.00 42 1015.0
20260507221547 59 326 4.0 15.0 0.00 0.00 0.00 42 1015.1
20260507220051 59 312 5.0 12.0 0.00 0.00 0.00 44 1015.0
20260507214558 60 338 4.0 9.0 0.00 0.00 0.00 43 1014.8
20260507213107 59 326 6.0 10.0 0.00 0.00 0.00 45 1014.8
20260507211551 58 328 4.0 18.0 0.00 0.00 0.00 44 1014.6
20260507210052 59 344 6.0 13.0 0.00 0.00 0.00 42 1014.6
20260507204552 58 310 6.0 16.0 0.00 0.00 0.00 41 1014.6
20260507203049 58 330 7.0 14.0 0.00 0.00 0.00 44 1014.5
20260507201602 59 347 3.0 11.0 0.00 0.00 0.00 45 1014.5
20260507200055 58 273 4.0 12.0 0.00 0.00 0.00 45 1014.6
20260507194552 58 333 5.0 16.0 0.00 0.00 0.00 44 1014.7
20260507193051 58 244 6.0 14.0 0.00 0.00 0.00 44 1014.7
20260507191552 58 274 4.0 9.0 0.00 0.00 0.00 45 1014.7
20260507190053 58 309 3.0 13.0 0.00 0.00 0.00 44 1014.7
20260507184546 58 283 10.0 18.0 0.00 0.00 0.00 42 1014.8
20260507183107 57 321 4.0 13.0 0.00 0.00 0.00 44 1014.9
20260507181548 58 359 3.0 12.0 0.00 0.00 0.00 44 1015.0
20260507180054 57 319 4.0 10.0 0.00 0.00 0.00 46 1015.2
20260507174603 56 274 8.0 15.0 0.00 0.00 0.00 43 1015.4
20260507173049 56 245 6.0 11.0 0.00 0.00 0.00 49 1015.5
20260507171600 56 28 3.0 10.0 0.00 0.00 0.00 46 1015.7